#timestamp,LO_Frequency,Hit 
1503842415.3,286047000.2,N
1503842435.1,286047002.1,N
1503842455.8,286047002.9,N
1503842475.7,286047003.9,N
1503842495.5,286047003.7,N
1503842515.4,286047010.4,P
1503842535.2,286047007.3,N
1503842555.0,286047009.2,N
1503842555.9,286047009.2,N
1503842575.7,286047004.6,N
1503842595.6,286047004.7,N
1503842615.4,286047002.9,N
1503842635.2,286047004.2,N
1503842655.1,286047004.1,N
1503842656.0,286047004.1,N
1503842675.8,286047003.6,N
1503842695.6,286047004.9,N
1503842715.5,286047008.8,P
1503842735.3,286047002.4,N
1503842755.1,286046999.7,N
1503842775.9,286047004.2,N
1503842795.7,286047002.9,N
1503842815.5,286047005.6,N
1503842835.4,286047004.7,N
1503842855.2,286047004.5,N
1503842875.0,286047006.7,N
1503842875.9,286047006.7,N
1503842895.8,286047008.5,P
1503842915.6,286047003.1,N
1503842935.4,286047004.3,N
1503842955.3,286047000.8,N
1503842975.1,286047000.8,N
1503842976.0,286047000.8,N
1503842995.8,286046999.1,N
1503843015.7,286046996.5,N
1503843035.5,286046998.5,N
1503843055.3,286047000.1,N
1503843075.2,286046999.3,N
1503843095.9,286046996.1,N
1503843115.7,286046997.6,N
1503843135.5,286046999.6,N
1503843155.4,286046997.9,N
1503843175.2,286046999.5,N
1503843195.0,286046996.5,N
1503843195.9,286046996.5,N
1503843215.8,286046998.6,N
1503843235.6,286047000.2,N
1503843255.4,286047002.1,N
1503843275.3,286047001.4,N
1503843295.1,286047001.8,N
1503843296.0,286047001.8,N
1503843315.8,286047003.2,N
1503843335.7,286047003.1,N
1503843355.5,286047006.5,N
1503843375.3,286047008.7,N
1503843395.1,286047008.9,N
1503843415.9,286047009.3,N
1503843435.7,286047012.0,P
1503843455.6,286047008.4,N
1503843475.4,286047008.0,N
1503843495.3,286047009.0,N
1503843515.1,286047007.2,N
1503843535.8,286047004.2,N
1503843555.7,286047007.6,N
1503843575.5,286047003.2,N
1503843595.3,286047002.3,N
1503843615.2,286046999.9,N
1503843635.9,286046999.5,N
1503843655.7,286046996.0,N
1503843675.6,286046992.6,N
1503843695.4,286046991.2,N
1503843715.2,286046989.5,N
1503843735.0,286046983.8,N
1503843735.9,286046983.8,N
1503843755.8,286046982.7,N
1503843775.6,286046983.3,N
1503843795.4,286046979.2,N
1503843815.3,286046974.2,N
1503843835.1,286046972.6,N
1503843836.0,286046972.6,N
1503843855.8,286046971.7,N
1503843875.7,286046969.0,N
1503843895.3,286046966.8,N
1503843915.1,286046966.9,N
1503843916.0,286046966.9,N
1503843935.8,286046967.2,N
1503843955.6,286046963.3,N
1503843975.5,286046962.5,N
1503843995.3,286046960.3,N
1503844015.1,286046961.6,N
1503844035.9,286046960.3,N
1503844055.7,286046957.2,N
1503844075.5,286046953.9,P
1503844095.4,286046973.4,N
1503844115.2,286046971.8,N
1503844135.0,286046971.8,N
1503844136.0,286046971.8,P
1503844155.8,286047000.4,N
1503844175.6,286046998.9,N
1503844195.4,286046995.1,N
1503844215.3,286046993.7,N
1503844235.1,286046993.3,N
1503844255.8,286046994.0,N
1503844275.7,286046991.8,N
1503844295.5,286046991.5,N
1503844315.3,286046988.6,N
1503844335.2,286046991.3,N
1503844355.9,286046993.1,N
1503844375.7,286046992.4,N
1503844395.6,286046989.4,N
1503844415.4,286046986.9,N
1503844435.2,286046987.3,N
1503844455.1,286046991.2,N
1503844456.0,286046991.2,N
1503844475.8,286046992.6,N
1503844495.6,286046993.1,N
1503844515.5,286046992.4,N
1503844535.3,286046993.9,N
1503844555.1,286046991.0,N
1503844575.8,286046987.1,N
1503844595.7,286046985.4,N
1503844615.5,286046985.6,N
1503844635.3,286046986.6,N
1503844655.2,286046980.9,P
1503844675.0,286046991.6,N
1503844675.9,286046991.6,N
1503844695.7,286046988.7,N
1503844715.6,286046987.4,P
1503844735.4,286046998.3,N
1503844755.3,286047000.8,N
1503844775.1,286047000.8,N
1503844776.0,286047000.8,N
1503844795.8,286047001.2,N
1503844815.6,286046999.1,N
1503844835.5,286046996.7,N
1503844855.3,286046995.1,N
1503844875.1,286046995.6,N
1503844895.9,286046995.2,N
1503844915.7,286046995.0,N
1503844935.5,286046993.5,N
1503844955.4,286046992.3,N
1503844975.2,286046990.4,N
1503844995.0,286046990.5,N
1503844995.9,286046990.5,N
1503845015.8,286046994.1,N
1503845035.6,286046994.1,N
1503845055.4,286046995.5,N
1503845075.3,286046991.7,N
1503845095.1,286046992.2,N
1503845096.0,286046992.2,N
1503845115.8,286046992.9,N
1503845135.7,286046990.2,N
1503845155.5,286046990.3,N
1503845175.3,286046991.3,N
1503845195.1,286046990.7,N
1503845215.9,286046991.8,N
1503845235.7,286046996.3,N
1503845255.5,286046996.8,N
1503845275.4,286047001.1,N
1503845295.2,286047000.2,N
1503845315.0,286047002.4,N
1503845315.9,286047002.4,N
1503845335.8,286047000.5,N
1503845355.6,286046997.8,N
1503845375.4,286046997.9,N
1503845395.3,286046996.9,N
1503845415.1,286046999.3,N
1503845416.0,286046999.3,N
1503845435.8,286046999.1,N
1503845455.7,286046997.3,N
1503845475.5,286046997.4,N
1503845495.3,286046999.5,N
1503845515.2,286046997.0,N
1503845535.9,286046997.5,N
1503845555.7,286046996.1,N
1503845575.6,286046993.7,N
1503845595.4,286046993.4,N
1503845615.2,286046996.4,N
1503845635.0,286046997.2,N
1503845636.0,286046997.2,N
1503845655.8,286046996.7,N
1503845675.6,286046998.6,N
1503845695.4,286046999.1,N
1503845715.3,286046997.0,N
1503845735.1,286046997.7,N
1503845755.8,286046995.9,N
1503845775.7,286046993.3,P
1503845795.5,286046998.5,N
1503845815.3,286047000.5,N
1503845835.2,286047002.7,N
1503845855.9,286047002.3,N
1503845875.7,286047003.9,N
1503845895.6,286047004.3,N
1503845915.4,286047005.6,N
1503845935.2,286047007.9,N
1503845955.1,286047011.5,N
1503845956.0,286047011.5,N
1503845975.8,286047008.4,N
1503845995.6,286047009.5,N
